Find Starlink 35849

NORAD ID: 66348 Int'l Des: 2025-254 Owner: SPXS Country: US Constellation: starlink operational
LEOCIRCULAR

Live Position

Loading 3D Globe...

About Starlink 35849

Description loading...

Upcoming Passes

Passes for default location (London). Set your location on the main map for personalized predictions.

Altitude History

Loading altitude history...

Two-Line Element Set

1 66348U 25254A 26107.10637283 .00014636 00000-0 50511-3 0 9996
2 66348 53.1614 54.2806 0002033 92.0729 268.0505 15.30212217 26010
Epoch: Apr 17, 2026 • Age: 12 hours

Current Status

Altitude 491.6 km
Velocity 7.62 km/s
Sub-Earth Point -45.03°S, 64.43°W
Launch Date Nov 6, 2025
Age 0.4 years
Type internet

Technical Details

Classification Payload
Mass 575.00 kg
Dry Mass 530.00 kg
Total Mass 575.00 kg
Length 0.30 m
Diameter 4.10 m
Span 29.00 m
Shape Box + pan
Manufacturer SPXS
Bus Type Starlink V2MO
Phase Status In Orbit
Owner/State SPXS/US

Most Searched